This demonstration page uses our WeatherBlox Daily Observations layout. Learn more.

39.29038, -76.61219

Hourly Observations for July 18, 2015

Temp ( °F °C ) Dew Point ( °F °C ) Humidity (%) Winds ( mph kmh ) Pressure ( in mb ) Visibility ( mi km ) Precip ( " mm )
12:54 am 00:54 undefined 78 25.6 69 20.6 74 74 undefined N/A 29.99 1016 N/A 0 0
1:54 am 01:54 undefined 77 25 69 20.6 77 77 undefined N/A 29.99 1016 N/A 0 0
2:54 am 02:54 undefined 77 25 69 20.6 77 77 undefined N/A 29.97 1015 N/A 0 0
3:54 am 03:54 Mostly Cloudy 76 24.4 69 20.6 79 79 undefined N/A 29.71 1006 N/A 0 0
4:54 am 04:54 Cloudy 76 24.4 69 20.6 79 79 undefined N/A 29.97 1015 N/A 0 0
5:54 am 05:54 undefined 76 24.4 69 20.6 79 79 undefined N/A 29.98 1015 N/A 0 0
6:54 am 06:54 Cloudy 76 24.4 69 20.6 79 79 undefined N/A 30.28 1025 N/A 0 0
7:54 am 07:54 undefined 77 25 69 20.6 77 77 undefined N/A 29.97 1015 N/A 0 0
8:54 am 08:54 undefined 79 26.1 70 21.1 74 74 undefined N/A 29.98 1015 N/A 0 0
9:54 am 09:54 undefined 80 26.7 70 21.1 71 71 undefined N/A 30.01 1016 N/A 0 0
10:54 am 10:54 Mostly Sunny 75 23.9 70 21.1 84 84 undefined N/A 30.01 1016 N/A 0.11 2.794
11:54 am 11:54 undefined 79 26.1 72 22.2 79 79 undefined N/A 29.93 1014 N/A 0.01 0.254
12:54 pm 12:54 undefined 80 26.7 73 22.8 79 79 undefined N/A 29.93 1014 N/A 0 0
1:54 pm 13:54 undefined 85 29.4 73 22.8 68 68 undefined N/A 29.93 1014 N/A 0 0
2:54 pm 14:54 Mostly Cloudy 86 30 72 22.2 63 63 undefined N/A 29.92 1013 N/A 0 0
3:54 pm 15:54 undefined 89 31.7 71 21.7 55 55 undefined N/A 29.91 1013 N/A 0 0
4:54 pm 16:54 undefined 89 31.7 74 23.3 61 61 undefined N/A 29.91 1013 N/A 0 0
5:54 pm 17:54 undefined 90 32.2 71 21.7 54 54 undefined N/A 29.89 1012 N/A 0 0
6:54 pm 18:54 undefined 88 31.1 71 21.7 57 57 undefined N/A 29.89 1012 N/A 0 0
7:54 pm 19:54 undefined 87 30.6 72 22.2 61 61 undefined N/A 29.88 1012 N/A 0 0
8:54 pm 20:54 Mostly Cloudy 85 29.4 71 21.7 63 63 undefined N/A 29.9 1013 N/A 0 0
9:54 pm 21:54 Cloudy 76 24.4 36 2.2 23 23 undefined N/A 30.01 1016 N/A 0 0
10:54 pm 22:54 undefined 82 27.8 72 22.2 72 72 undefined N/A 29.93 1013 N/A 0 0
11:54 pm 23:54 undefined 81 27.2 72 22.2 74 74 undefined N/A 29.91 1013 N/A 0 0

Powered by AerisWeather